Weather History for K4O4 - August, 2013

Change the Weather History Date:

Saturday, August 17, 2013

  Actual Average (KDEQ) Record (KDEQ)
Temperature  
Mean Temperature 71 °F 82 °F  
Max Temperature 87 °F 94 °F 106 °F (1956)
Min Temperature 55 °F 69 °F 54 °F (1992)
Degree Days  
Heating Degree Days 0 0  
Month to date heating degree days 0  
Since 1 June heating degree days 0  
Since 1 July heating degree days 0  
Cooling Degree Days 6 17  
Month to date cooling degree days 285  
Year to date cooling degree days 1377  
Since 1 June cooling degree days 1160  
Growing Degree Days 21 (Base 50)    
Moisture  
Dew Point 57 °F    
Average Humidity 67    
Maximum Humidity 100    
Minimum Humidity 33    
Precipitation  
Precipitation 0.00 in 0.06 in 1.97 in (1961)
Month to date precipitation 1.16  
Year to date precipitation 30.58  
Snow  
Snow 0.00 in - - ()
Month to date snowfall  
Since 1 June snowfall  
Since 1 July snowfall  
Snow Depth -    
Sea Level Pressure  
Sea Level Pressure 30.07 in    
Wind  
Wind Speed 3 mph (NE)    
Max Wind Speed 13 mph    
Max Gust Speed 18 mph    
Visibility 10 miles    
Events      
T = Trace of Precipitation, MM = Missing Value Source: NWS Daily Summary

Daily Weather History Graph

Daily Weather History Graph

Search for Another Location

Airport or City:

Trip Planner

Search our weather history database for the weather conditions in past years. The results will help you decide how hot, cold, wet, or windy it might be!

Date:

Astronomy

Aug. 17, 2013 Rise Set
Actual Time 6:42 AM CDT 8:03 PM CDT
Civil Twilight 6:16 AM CDT 8:29 PM CDT
Nautical Twilight 5:45 AM CDT 9:01 PM CDT
Astronomical Twilight 5:12 AM CDT 9:33 PM CDT
Moon 5:15 PM CDT (8/17) 2:52 AM CDT (8/17)
Length of Visible Light 14h 13m
Length of Day
13h 20m
Waxing Gibbous, 84% of the Moon is Illuminated
Aug 17
Waxing Gibbous
Aug 20
Full
Aug 28
Last Quarter
Sep 5
New
Sep 12
First Quarter

Hourly Weather History & Observations

Time (CDT) Temp. Heat Index Dew Point Humidity Pressure Visibility Wind Dir Wind Speed Gust Speed Precip Events Conditions
12:15 AM 60.8 °F - 55.4 °F 82% 30.11 in 10.0 mi Calm Calm - N/A   Clear
12:35 AM 59.0 °F - 55.4 °F 88% 30.11 in 10.0 mi Calm Calm - N/A   Clear
12:55 AM 59.0 °F - 55.4 °F 88% 30.11 in 10.0 mi Calm Calm - N/A   Clear
1:15 AM 59.0 °F - 55.4 °F 88% 30.11 in 10.0 mi Calm Calm - N/A   Clear
1:35 AM 59.0 °F - 55.4 °F 88% 30.11 in 10.0 mi Calm Calm - N/A   Clear
1:55 AM 59.0 °F - 55.4 °F 88% 30.11 in 10.0 mi Calm Calm - N/A   Clear
2:15 AM 57.2 °F - 55.4 °F 94% 30.10 in 10.0 mi Calm Calm - N/A   Clear
2:35 AM 59.0 °F - 55.4 °F 88% 30.10 in 10.0 mi Calm Calm - N/A   Clear
2:55 AM 57.2 °F - 55.4 °F 94% 30.09 in 10.0 mi Calm Calm - N/A   Clear
3:15 AM 57.2 °F - 55.4 °F 94% 30.09 in 10.0 mi NNE 3.5 mph - N/A   Clear
3:35 AM 57.2 °F - 55.4 °F 94% 30.09 in 10.0 mi NNE 3.5 mph - N/A   Clear
3:55 AM 57.2 °F - 55.4 °F 94% 30.08 in 10.0 mi NNE 4.6 mph - N/A   Clear
4:15 AM 55.4 °F - 53.6 °F 94% 30.08 in 10.0 mi North 3.5 mph - N/A   Clear
4:35 AM 55.4 °F - 53.6 °F 94% 30.08 in 10.0 mi North 3.5 mph - N/A   Clear
4:55 AM 55.4 °F - 53.6 °F 94% 30.08 in 7.0 mi Calm Calm - N/A   Clear
5:15 AM 55.4 °F - 53.6 °F 94% 30.08 in 10.0 mi Calm Calm - N/A   Clear
5:35 AM 55.4 °F - 53.6 °F 94% 30.08 in 10.0 mi Calm Calm - N/A   Clear
5:55 AM 55.4 °F - 53.6 °F 94% 30.08 in 10.0 mi North 3.5 mph - N/A   Clear
6:15 AM 55.4 °F - 53.6 °F 94% 30.08 in 10.0 mi North 4.6 mph - N/A   Clear
6:35 AM 55.4 °F - 53.6 °F 94% 30.09 in 10.0 mi North 3.5 mph - N/A   Clear
6:55 AM 55.4 °F - 55.4 °F 100% 30.09 in 10.0 mi North 4.6 mph - N/A   Clear
7:15 AM 57.2 °F - 55.4 °F 94% 30.09 in 10.0 mi North 4.6 mph - N/A   Clear
7:35 AM 59.0 °F - 55.4 °F 88% 30.10 in 10.0 mi North 3.5 mph - N/A   Clear
7:55 AM 59.0 °F - 57.2 °F 94% 30.10 in 10.0 mi North 3.5 mph - N/A   Clear
8:15 AM 60.8 °F - 59.0 °F 94% 30.10 in 10.0 mi North 4.6 mph - N/A   Clear
8:35 AM 62.6 °F - 60.8 °F 94% 30.10 in 10.0 mi North 5.8 mph - N/A   Clear
8:55 AM 64.4 °F - 60.8 °F 88% 30.10 in 10.0 mi North 6.9 mph - N/A   Clear
9:15 AM 68.0 °F - 60.8 °F 78% 30.10 in 10.0 mi North 6.9 mph - N/A   Clear
9:35 AM 71.6 °F - 60.8 °F 69% 30.10 in 10.0 mi North 6.9 mph - N/A   Clear
9:55 AM 73.4 °F - 60.8 °F 65% 30.10 in 10.0 mi NE 5.8 mph - N/A   Clear
10:15 AM 75.2 °F - 60.8 °F 61% 30.11 in 10.0 mi NNE 5.8 mph - N/A   Clear
10:35 AM 77.0 °F - 59.0 °F 54% 30.11 in 10.0 mi North 9.2 mph - N/A   Clear
10:55 AM 77.0 °F - 59.0 °F 54% 30.11 in 10.0 mi North 8.1 mph - N/A   Clear
11:15 AM 78.8 °F - 57.2 °F 47% 30.10 in 10.0 mi NNE 12.7 mph - N/A   Clear
11:35 AM 78.8 °F - 55.4 °F 44% 30.10 in 10.0 mi North 9.2 mph 17.3 mph N/A   Clear
11:55 AM 80.6 °F 80.5 °F 55.4 °F 42% 30.10 in 10.0 mi NE 11.5 mph - N/A   Clear
12:15 PM 80.6 °F 80.5 °F 55.4 °F 42% 30.10 in 10.0 mi NNE 10.4 mph 17.3 mph N/A   Clear
12:35 PM 80.6 °F 80.5 °F 55.4 °F 42% 30.09 in 10.0 mi NNE 12.7 mph 18.4 mph N/A   Clear
12:55 PM 80.6 °F 80.8 °F 57.2 °F 45% 30.09 in 10.0 mi ENE 8.1 mph - N/A   Clear
1:15 PM 82.4 °F 82.0 °F 57.2 °F 42% 30.08 in 10.0 mi ENE 6.9 mph - N/A   Clear
1:35 PM 82.4 °F 82.0 °F 57.2 °F 42% 30.07 in 10.0 mi NE 4.6 mph - N/A   Clear
1:55 PM 84.2 °F 83.5 °F 57.2 °F 40% 30.07 in 10.0 mi NE 5.8 mph - N/A   Clear
2:15 PM 86.0 °F 84.9 °F 57.2 °F 37% 30.06 in 10.0 mi ENE 9.2 mph - N/A   Clear
2:35 PM 86.0 °F 84.5 °F 55.4 °F 35% 30.05 in 10.0 mi ENE 6.9 mph - N/A   Clear
2:55 PM 86.0 °F 84.9 °F 57.2 °F 37% 30.04 in 10.0 mi ENE 8.1 mph - N/A   Clear
3:15 PM 86.0 °F 85.4 °F 59.0 °F 40% 30.04 in 10.0 mi East 5.8 mph - N/A   Clear
3:35 PM 86.0 °F 84.9 °F 57.2 °F 37% 30.03 in 10.0 mi ENE 9.2 mph - N/A   Clear
3:55 PM 86.0 °F 84.9 °F 57.2 °F 37% 30.02 in 10.0 mi East 6.9 mph - N/A   Clear
4:15 PM 87.8 °F 86.5 °F 57.2 °F 35% 30.02 in 10.0 mi NE 9.2 mph - N/A   Clear
4:35 PM 87.8 °F 86.1 °F 55.4 °F 33% 30.02 in 10.0 mi East 6.9 mph 16.1 mph N/A   Clear
4:55 PM 87.8 °F 86.1 °F 55.4 °F 33% 30.02 in 10.0 mi East 8.1 mph - N/A   Clear
5:15 PM 86.0 °F 84.5 °F 55.4 °F 35% 30.02 in 10.0 mi ESE 6.9 mph - N/A   Clear
5:35 PM 87.8 °F 86.5 °F 57.2 °F 35% 30.02 in 10.0 mi East 9.2 mph - N/A   Clear
5:55 PM 86.0 °F 84.5 °F 55.4 °F 35% 30.02 in 10.0 mi East 4.6 mph - N/A   Clear
6:15 PM 86.0 °F 84.5 °F 55.4 °F 35% 30.02 in 10.0 mi ENE 4.6 mph - N/A   Clear
6:35 PM 86.0 °F 84.9 °F 57.2 °F 37% 30.01 in 10.0 mi East 5.8 mph - N/A   Clear
6:55 PM 84.2 °F 83.5 °F 57.2 °F 40% 30.02 in 10.0 mi East 5.8 mph - N/A   Clear
7:15 PM 82.4 °F 82.5 °F 59.0 °F 45% 30.02 in 10.0 mi East 4.6 mph - N/A   Clear
7:35 PM 80.6 °F 81.5 °F 60.8 °F 51% 30.02 in 10.0 mi ESE 3.5 mph - N/A   Clear
7:55 PM 78.8 °F - 60.8 °F 54% 30.02 in 10.0 mi Calm Calm - N/A   Clear
8:15 PM 75.2 °F - 59.0 °F 57% 30.02 in 10.0 mi Calm Calm - N/A   Clear
8:35 PM 71.6 °F - 60.8 °F 69% 30.02 in 10.0 mi Calm Calm - N/A   Clear
8:55 PM 69.8 °F - 60.8 °F 73% 30.03 in 10.0 mi ESE 4.6 mph - N/A   Clear
9:15 PM 71.6 °F - 60.8 °F 69% 30.03 in 10.0 mi East 3.5 mph - N/A   Clear
9:35 PM 69.8 °F - 60.8 °F 73% 30.04 in 10.0 mi Calm Calm - N/A   Clear
9:55 PM 69.8 °F - 60.8 °F 73% 30.04 in 10.0 mi Calm Calm - N/A   Clear
10:15 PM 68.0 °F - 60.8 °F 78% 30.05 in 10.0 mi NNE 3.5 mph - N/A   Clear
10:35 PM 68.0 °F - 62.6 °F 83% 30.06 in 10.0 mi ENE 3.5 mph - N/A   Clear
10:55 PM 68.0 °F - 60.8 °F 78% 30.05 in 10.0 mi ENE 3.5 mph - N/A   Clear
11:15 PM 68.0 °F - 62.6 °F 83% 30.05 in 10.0 mi ENE 4.6 mph - N/A   Clear
11:35 PM 68.0 °F - 62.6 °F 83% 30.06 in 10.0 mi ENE 4.6 mph - N/A   Clear
11:55 PM 68.0 °F - 62.6 °F 83% 30.06 in 10.0 mi ENE 3.5 mph - N/A   Clear